Regional Weather Roundup
Issued by NWS Green Bay, WI

Home | Current Version | Previous Version | Graphics & Text | Print | Product List | Glossary Off
Versions: 1 2 3 4 5 6 7 8 9 10 11 12 13 14 15 16 17 18 19 20 21 22 23 24 25 26 27 28 29 30 31 32 33 34 35 36 37 38 39 40 41 42 43 44 45 46 47 48 49 50

000
ASUS43 KGRB 250400
RWRGRB

NORTH-CENTRAL AND NORTHEAST WISCONSIN REGIONAL WEATHER ROUNDUP
NATIONAL WEATHER SERVICE GREEN BAY WI
1100 PM CDT SUN SEP 24 2017

WIZ005-009-010>012-018-019-250500-
NORTH CENTRAL WISCONSIN

CITY           SKY/WX    TMP DP  RH WIND       PRES   REMARKS
IRONWOOD       CLEAR     75  60  59 S10G20    29.91S
MANITOWISH WTR NOT AVBL
ARBOR VITAE    NOT AVBL
EAGLE RIVER    NOT AVBL
LAND O LAKES   NOT AVBL
RHINELANDER    CLEAR     72  61  68 S5        29.99F
PHILLIPS       CLOUDY    71  60  69 S7        29.95F
ANTIGO         NOT AVBL
TOMAHAWK       NOT AVBL
MERRILL        NOT AVBL
$$

WIZ013-073-250500-
NORTHEAST WISCONSIN

CITY           SKY/WX    TMP DP  RH WIND       PRES   REMARKS
IRON MOUNTAIN  CLEAR     71  63  75 SW3       29.98R
MARINETTE      CLEAR     70  62  76 SW6       29.98F
$$

WIZ017-030-035>037-045-250500-
CENTRAL WISCONSIN

CITY           SKY/WX    TMP DP  RH WIND       PRES   REMARKS
MEDFORD        NOT AVBL
WAUSAU         CLEAR     71  60  68 CALM      29.97S
MOSINEE        NOT AVBL
MARSHFIELD     CLEAR     68  59  73 S6        29.97S
WISC RAPIDS    CLEAR     70  60  70 S3        29.99S
STEVENS POINT  NOT AVBL
WAUPACA        NOT AVBL
SHAWANO        NOT AVBL
CLINTONVILLE   NOT AVBL
WAUTOMA        CLEAR     65  63  93 CALM      29.99S
$$

WIZ038-039-048-051-250500-
FOX VALLEY

CITY           SKY/WX    TMP DP  RH WIND       PRES   REMARKS
NWS GREEN BAY  CLEAR     72  62  71 SW7       29.99S
APPLETON       CLEAR     73  61  64 S8        29.99S
OSHKOSH        CLEAR     68  62  81 S7        29.99S
FOND DU LAC    CLEAR     74  58  57 S8        30.00S
$$

WIZ022-050-052-250500-
EAST CENTRAL WISCONSIN

CITY           SKY/WX    TMP DP  RH WIND       PRES   REMARKS
EPHRAIM        NOT AVBL
WASHINGTON ISL NOT AVBL
STURGEON BAY   CLEAR     72  61  68 S8        30.00S
MANITOWOC      CLEAR     70  61  73 S6        30.01S
SHEBOYGAN      CLEAR     66  64  93 CALM      30.01S
$$

LMZ563-521-522-541>543-250500-
LAKESHORE

STATION/POSITION TIME  TEMP    WIND        PRES    VSBY  WAVE
                       AIR SEA DIR/SP/G                  HT/PER
                 (UTC) (F)     (DEG/KT/KT) (MB)    (MI)  (FT/S)
SHEBOYGAN LKSHOR 0300   74     190/  9/ 10 1015.7F
KEWAUNEE LKSHORE 0330   66     160/  6/  7 1015.2S
NORTHPORT PIER   0340   74     170/  3/  9 1014.9F
N MID LAKE BUOY  0250   69 67  160/ 10/ 12 1016.3F         1/ 3
SISTER BAY LKSHO 0320   75     160/ 11/ 14   N/A
MENOMINEE LKSHOR 0330   73     180/  7/ 10 1014.9S
$$



USA.gov is the U.S. government's official web portal to all federal, state and local government web resources and services.